Find OneWeb SL0703

NORAD ID: 56724 Int'l Des: 2023-068 Owner: ONEWEBN Country: UK Constellation: oneweb operational
LEOCIRCULARPOLARONEWEB_TYPE

現在のビュー

3D地球を読み込み中...

OneWeb SL0703について

説明を読み込み中...

次回通過

Passes for default location (London). Set your location on the main map for personalized predictions.

高度履歴

Loading altitude history...

軌道要素

1 56724U 23068Q 26149.77630051 .00000060 00000-0 12591-3 0 9991
2 56724 87.8994 262.8713 0001701 74.1224 286.0094 13.15547499146838
Epoch: May 29, 2026 • Age: 21 hours

現在のステータス

高度 1209.9 km
速度 7.25 km/s
衛星直下点 53.78°N, 38.56°W
打ち上げ日 May 20, 2023
運用期間 3 years
タイプ internet

技術仕様

分類 Payload
質量 148.00 kg
乾燥質量 140.00 kg
総質量 148.00 kg
長さ 1.30 m
直径 1.00 m
スパン 5.00 m
形状 Trapezoid+2 pan
製造者 ONEWUS
バスタイプ ARROW
フェーズステータス In Orbit
所有者/国 ONEWEBN/UK

Most Searched